Date String (YYYY-MM-DD hh:mm:ss) UTC,Instrument flags,Ambient pressure (hPa),Sample flow (lpm),Bypass flow (lpm),Sample temperature (°C),Ambient temperature (°C),ASC tube jacket temperature (°C),LED temperature (°C),Box temperature (°C),Sample RH (%),Span deviation,Mass concentration (μg/m³),Mass concentration (μg/m³),Mass concentration (μg/m³)
DateTimeUTC,F1_M11,P_M11,Q1_M11,Q2_M11,T1_M11,T2_M11,T3_M11,T4_M11,T5_M11,U1_M11,ZSPAN_M11,X0_M11,X2_M11,X1_M11
2022-04-25 12:00:00,,0833.2,5.01,0.00,21.7,21.1,00.0,30.6,23.5,14.0,0000.0,0007.90,0003.41,0002.45
2022-04-25 12:01:00,,0833.1,5.01,0.00,21.7,21.1,00.0,30.6,23.5,14.0,0000.0,0007.91,0003.39,0002.44
2022-04-25 12:02:00,,0833.2,4.99,0.00,21.7,21.1,00.0,30.6,23.5,14.0,0000.0,0007.72,0003.37,0002.44
2022-04-25 12:03:00,,0833.1,5.01,0.00,21.7,21.1,00.0,30.6,23.4,14.0,0000.0,0007.50,0003.38,0002.44
2022-04-25 12:04:00,,0833.2,5.01,0.00,21.7,21.1,00.0,30.6,23.4,14.0,0000.0,0007.44,0003.36,0002.43
2022-04-25 12:05:00,,0833.1,5.00,0.00,21.7,21.1,00.0,30.6,23.4,14.0,0000.0,0007.49,0003.36,0002.43
2022-04-25 12:06:00,,0833.2,4.99,0.00,21.7,21.1,00.0,30.6,23.4,14.0,0000.0,0007.23,0003.34,0002.43
2022-04-25 12:07:00,,0833.2,5.02,0.00,21.7,21.1,00.0,30.6,23.4,14.0,0000.0,0007.13,0003.31,0002.43
2022-04-25 12:08:00,,0833.2,5.00,0.00,21.7,21.1,00.0,30.6,23.4,14.0,0000.0,0007.23,0003.33,0002.42
2022-04-25 12:09:00,,0833.2,4.99,0.00,21.7,21.1,00.0,30.6,23.5,14.0,0000.0,0006.61,0003.36,0002.40
2022-04-25 12:10:00,,0833.3,5.01,0.00,21.7,21.1,00.0,30.6,23.4,14.0,0000.0,0006.49,0003.32,0002.37
2022-04-25 12:11:00,,0833.3,5.00,0.00,21.7,21.0,00.0,30.6,23.4,14.1,0000.0,0006.53,0003.31,0002.35
2022-04-25 12:12:00,,0833.3,4.98,0.00,21.7,21.0,00.0,30.6,23.4,14.1,0000.0,0007.77,0003.32,0002.34
2022-04-25 12:13:00,,0833.3,5.00,0.00,21.6,21.0,00.0,30.6,23.4,14.1,0000.0,0007.66,0003.31,0002.34
2022-04-25 12:14:00,,0833.3,5.01,0.00,21.7,21.5,00.0,30.6,23.5,14.0,0000.0,0007.64,0003.30,0002.32
2022-04-25 12:15:00,,0833.3,4.99,0.00,21.8,22.4,00.0,30.7,23.8,13.9,0000.0,0007.68,0003.30,0002.32
2022-04-25 12:16:00,,0833.3,5.00,0.00,22.0,23.2,00.0,30.7,24.0,13.7,0000.0,0007.63,0003.29,0002.32
2022-04-25 12:17:00,,0833.3,5.00,0.00,22.1,23.2,00.0,30.8,24.1,13.7,0000.0,0007.65,0003.30,0002.32
2022-04-25 12:18:00,,0833.3,5.00,0.00,22.1,22.9,00.0,30.8,24.1,13.6,0000.0,0007.61,0003.31,0002.30
2022-04-25 12:19:00,,0833.3,5.00,0.00,22.1,22.6,00.0,30.8,24.0,13.7,0000.0,0007.32,0003.26,0002.28
2022-04-25 12:20:00,,0833.3,5.00,0.00,22.1,22.3,00.0,30.8,24.0,13.7,0000.0,0007.19,0003.24,0002.29
2022-04-25 12:21:00,,0833.3,5.01,0.00,22.1,22.1,00.0,30.8,23.9,13.7,0000.0,0007.28,0003.27,0002.30
2022-04-25 12:22:00,,0833.3,4.99,0.00,22.0,21.9,00.0,30.9,23.8,13.7,0000.0,0007.32,0003.29,0002.30
2022-04-25 12:23:00,,0833.4,5.01,0.00,22.0,21.8,00.0,30.9,23.8,13.7,0000.0,0005.60,0003.26,0002.29
2022-04-25 12:24:00,,0833.4,5.00,0.00,22.0,21.7,00.0,30.9,23.8,13.7,0000.0,0005.53,0003.27,0002.29
2022-04-25 12:25:00,,0833.3,4.99,0.00,22.0,21.6,00.0,30.9,23.7,13.8,0000.0,0005.84,0003.27,0002.31
2022-04-25 12:26:00,,0833.4,4.99,0.00,22.0,21.5,00.0,30.9,23.7,13.8,0000.0,0005.83,0003.27,0002.30
2022-04-25 12:27:00,,0833.4,5.00,0.00,21.9,21.4,00.0,30.9,23.7,13.8,0000.0,0005.87,0003.26,0002.27
2022-04-25 12:28:00,,0833.4,5.00,0.00,21.9,21.3,00.0,30.9,23.6,13.9,0000.0,0006.03,0003.24,0002.26
2022-04-25 12:29:00,,0833.5,5.01,0.00,21.9,21.3,00.0,30.9,23.6,13.8,0000.0,0006.20,0003.24,0002.26
2022-04-25 12:30:00,,0833.4,5.00,0.00,21.9,21.3,00.0,30.9,23.6,13.8,0000.0,0006.28,0003.24,0002.26
2022-04-25 12:31:00,,0833.4,4.99,0.00,21.9,21.2,00.0,30.9,23.6,13.8,0000.0,0006.23,0003.22,0002.25
2022-04-25 12:32:00,,0833.4,5.00,0.00,21.9,21.2,00.0,30.9,23.6,13.8,0000.0,0006.19,0003.20,0002.24
2022-04-25 12:33:00,,0833.5,5.00,0.00,21.9,21.2,00.0,30.9,23.6,13.8,0000.0,0006.19,0003.19,0002.25
2022-04-25 12:34:00,,0833.4,5.00,0.00,21.8,21.2,00.0,30.9,23.5,13.8,0000.0,0006.17,0003.18,0002.25
2022-04-25 12:35:00,,0833.4,5.01,0.00,21.8,21.2,00.0,30.9,23.5,13.9,0000.0,0006.06,0003.15,0002.25
2022-04-25 12:36:00,,0833.4,4.98,0.00,21.8,21.2,00.0,30.8,23.6,13.9,0000.0,0005.79,0003.16,0002.23
2022-04-25 12:37:00,,0833.4,5.00,0.00,21.8,21.2,00.0,30.8,23.6,13.8,0000.0,0006.11,0003.15,0002.23
2022-04-25 12:38:00,,0833.4,5.01,0.00,21.8,21.2,00.0,30.8,23.6,13.8,0000.0,0006.01,0003.14,0002.24
2022-04-25 12:39:00,,0833.3,5.01,0.00,21.8,21.1,00.0,30.8,23.6,13.9,0000.0,0005.53,0003.08,0002.24
2022-04-25 12:40:00,,0833.3,4.99,0.00,21.8,21.1,00.0,30.8,23.6,13.8,0000.0,0005.41,0003.06,0002.24
2022-04-25 12:41:00,,0833.3,5.00,0.00,21.8,21.1,00.0,30.8,23.6,13.7,0000.0,0005.58,0003.11,0002.23
2022-04-25 12:42:00,,0833.3,5.00,0.00,21.8,21.1,00.0,30.8,23.6,13.7,0000.0,0005.84,0003.15,0002.24
2022-04-25 12:43:00,,0833.3,5.01,0.00,21.8,21.1,00.0,30.8,23.5,13.7,0000.0,0005.83,0003.15,0002.23
2022-04-25 12:44:00,,0833.3,4.99,0.00,21.8,21.1,00.0,30.8,23.5,13.7,0000.0,0005.91,0003.14,0002.22
2022-04-25 12:45:00,,0833.4,5.00,0.00,21.8,21.1,00.0,30.8,23.6,13.7,0000.0,0006.27,0003.19,0002.23
2022-04-25 12:46:00,,0833.4,5.00,0.00,21.8,21.1,00.0,30.8,23.5,13.7,0000.0,0006.35,0003.20,0002.22
2022-04-25 12:47:00,,0833.4,5.00,0.00,21.8,21.1,00.0,30.8,23.5,13.7,0000.0,0006.76,0003.23,0002.23
2022-04-25 12:48:00,,0833.4,5.00,0.00,21.8,21.1,00.0,30.8,23.6,13.8,0000.0,0006.57,0003.21,0002.24
2022-04-25 12:49:00,,0833.5,4.99,0.00,21.8,21.1,00.0,30.8,23.5,13.8,0000.0,0006.56,0003.25,0002.24
2022-04-25 12:50:00,,0833.5,4.99,0.00,21.8,21.1,00.0,30.8,23.5,13.9,0000.0,0006.87,0003.30,0002.27
2022-04-25 12:51:00,,0833.4,5.01,0.00,21.8,21.2,00.0,30.8,23.6,13.9,0000.0,0007.05,0003.34,0002.29
2022-04-25 12:52:00,,0833.4,5.00,0.00,21.8,21.2,00.0,30.8,23.6,13.9,0000.0,0007.16,0003.39,0002.32
2022-04-25 12:53:00,,0833.4,4.98,0.00,21.9,21.2,00.0,30.8,23.7,14.1,0000.0,0007.39,0003.42,0002.33
2022-04-25 12:54:00,,0833.5,5.01,0.00,21.9,21.2,00.0,30.8,23.7,14.4,0000.0,0007.54,0003.41,0002.35
2022-04-25 12:55:00,,0833.5,5.01,0.00,21.9,21.2,00.0,30.8,23.7,14.4,0000.0,0007.41,0003.41,0002.36
2022-04-25 12:56:00,,0833.5,4.99,0.00,21.9,21.3,00.0,30.8,23.7,14.4,0000.0,0007.18,0003.40,0002.37
2022-04-25 12:57:00,,0833.5,5.00,0.00,21.9,21.3,00.0,30.8,23.7,14.4,0000.0,0007.74,0003.39,0002.39
2022-04-25 12:58:00,,0833.5,5.00,0.00,21.9,21.3,00.0,30.8,23.8,14.4,0000.0,0007.50,0003.37,0002.39
2022-04-25 12:59:00,,0833.5,5.00,0.00,21.9,21.3,00.0,30.8,23.8,14.4,0000.0,0007.39,0003.38,0002.39
